TimeEDT,TemperatureF,Dew PointF,Humidity,Sea Level PressureIn,VisibilityMPH,Wind Direction,Wind SpeedMPH,Gust SpeedMPH,PrecipitationIn,Events,Conditions,WindDirDegrees,DateUTC
12:11 AM,42.3,41.9,99,29.89,10.0,Calm,Calm,-,N/A,,Clear,0,2012-10-02 04:11:00
12:31 AM,41.7,41.2,98,29.89,10.0,Calm,Calm,-,N/A,,Clear,0,2012-10-02 04:31:00
12:51 AM,41.0,40.5,98,29.88,10.0,Calm,Calm,-,N/A,,Clear,0,2012-10-02 04:51:00
1:11 AM,41.7,41.5,99,29.88,10.0,Calm,Calm,-,N/A,,Clear,0,2012-10-02 05:11:00
1:31 AM,41.0,40.5,98,29.88,10.0,Calm,Calm,-,N/A,,Clear,0,2012-10-02 05:31:00
1:51 AM,42.3,42.1,99,29.88,10.0,Calm,Calm,-,N/A,,Clear,0,2012-10-02 05:51:00
2:52 AM,42.3,42.3,100,29.88,10.0,Calm,Calm,-,N/A,,Clear,0,2012-10-02 06:52:00
3:12 AM,42.3,42.1,99,29.87,10.0,Calm,Calm,-,N/A,,Clear,0,2012-10-02 07:12:00
3:32 AM,42.3,42.1,99,29.87,10.0,Calm,Calm,-,N/A,,Clear,0,2012-10-02 07:32:00
3:52 AM,41.9,41.5,99,29.87,10.0,Calm,Calm,-,N/A,,Clear,0,2012-10-02 07:52:00
4:12 AM,41.2,41.2,100,29.88,10.0,Calm,Calm,-,N/A,,Clear,0,2012-10-02 08:12:00
4:32 AM,41.0,41.0,100,29.88,7.0,Calm,Calm,-,N/A,,Clear,0,2012-10-02 08:32:00
4:52 AM,41.0,41.0,100,29.88,10.0,Calm,Calm,-,N/A,,Clear,0,2012-10-02 08:52:00
5:12 AM,41.0,41.0,100,29.88,10.0,Calm,Calm,-,N/A,,Clear,0,2012-10-02 09:12:00
5:32 AM,41.0,40.6,99,29.88,10.0,Calm,Calm,-,N/A,,Clear,0,2012-10-02 09:32:00
5:52 AM,41.0,41.0,100,29.89,10.0,Calm,Calm,-,N/A,,Clear,0,2012-10-02 09:52:00
6:12 AM,41.0,41.0,100,29.89,10.0,Calm,Calm,-,N/A,,Clear,0,2012-10-02 10:12:00
6:32 AM,40.8,40.8,100,29.89,10.0,Calm,Calm,-,N/A,,Clear,0,2012-10-02 10:32:00
6:53 AM,39.6,39.6,100,29.89,10.0,Calm,Calm,-,N/A,,Clear,0,2012-10-02 10:53:00
7:13 AM,38.3,38.3,100,29.90,7.0,Calm,Calm,-,N/A,,Clear,0,2012-10-02 11:13:00
7:33 AM,37.2,37.2,100,29.91,3.0,Calm,Calm,-,N/A,,Clear,0,2012-10-02 11:33:00
7:53 AM,36.7,36.7,100,29.91,1.8,NW,4.6,-,N/A,,Mist,320,2012-10-02 11:53:00
8:13 AM,35.4,35.4,100,29.91,5.0,Calm,Calm,-,N/A,,Clear,0,2012-10-02 12:13:00
8:33 AM,39.4,39.4,100,29.93,10.0,Calm,Calm,-,N/A,,Clear,0,2012-10-02 12:33:00
8:53 AM,42.3,42.3,100,29.92,10.0,NNW,6.9,-,N/A,,Clear,330,2012-10-02 12:53:00
9:13 AM,45.5,45.3,99,29.94,10.0,Calm,Calm,-,N/A,,Clear,0,2012-10-02 13:13:00
9:33 AM,50.0,47.1,90,29.94,10.0,Calm,Calm,-,N/A,,Clear,0,2012-10-02 13:33:00
9:54 AM,54.7,48.0,78,29.93,10.0,Calm,Calm,-,N/A,,Clear,0,2012-10-02 13:54:00
10:14 AM,55.8,46.9,72,29.93,10.0,Calm,Calm,-,N/A,,Clear,0,2012-10-02 14:14:00
10:34 AM,58.6,46.0,63,29.93,10.0,Calm,Calm,-,N/A,,Clear,0,2012-10-02 14:34:00
10:54 AM,60.8,44.1,54,29.93,10.0,Calm,Calm,-,N/A,,Clear,0,2012-10-02 14:54:00
11:14 AM,62.6,44.1,51,29.93,10.0,SE,3.5,-,N/A,,Clear,140,2012-10-02 15:14:00
11:34 AM,63.1,41.9,46,29.93,10.0,SE,3.5,-,N/A,,Clear,140,2012-10-02 15:34:00
11:54 AM,64.8,40.8,42,29.93,10.0,ENE,3.5,-,N/A,,Clear,70,2012-10-02 15:54:00
12:14 PM,65.8,39.2,38,29.93,10.0,SSE,5.8,-,N/A,,Clear,160,2012-10-02 16:14:00
12:34 PM,67.5,37.9,34,29.93,10.0,East,3.5,-,N/A,,Clear,90,2012-10-02 16:34:00
12:54 PM,68.4,35.6,30,29.93,10.0,Calm,Calm,-,N/A,,Clear,0,2012-10-02 16:54:00
1:14 PM,70.0,36.0,29,29.93,10.0,SSE,3.5,-,N/A,,Clear,160,2012-10-02 17:14:00
1:34 PM,70.0,34.5,27,29.93,10.0,NW,4.6,-,N/A,,Clear,320,2012-10-02 17:34:00
1:55 PM,70.0,33.3,26,29.93,10.0,Calm,Calm,-,N/A,,Clear,0,2012-10-02 17:55:00
2:15 PM,70.0,32.5,25,29.91,10.0,ENE,3.5,-,N/A,,Clear,60,2012-10-02 18:15:00
2:35 PM,70.3,32.5,25,29.91,10.0,Calm,Calm,-,N/A,,Clear,0,2012-10-02 18:35:00
2:55 PM,70.2,32.9,25,29.91,10.0,NE,3.5,-,N/A,,Clear,50,2012-10-02 18:55:00
3:10 PM,70.3,33.6,26,29.91,10.0,East,4.6,-,N/A,,Clear,90,2012-10-02 19:10:00
3:30 PM,70.7,34.0,26,29.90,10.0,Calm,Calm,-,N/A,,Clear,0,2012-10-02 19:30:00
3:50 PM,70.5,34.9,27,29.90,10.0,Calm,Calm,-,N/A,,Clear,0,2012-10-02 19:50:00
4:10 PM,73.2,37.2,27,29.89,10.0,NNW,3.5,-,N/A,,Clear,340,2012-10-02 20:10:00
4:30 PM,73.9,37.0,26,29.89,10.0,Calm,Calm,-,N/A,,Clear,0,2012-10-02 20:30:00
4:50 PM,72.7,36.9,27,29.89,10.0,NNW,3.5,-,N/A,,Clear,340,2012-10-02 20:50:00
5:10 PM,75.0,37.2,25,29.90,10.0,NNE,3.5,-,N/A,,Clear,20,2012-10-02 21:10:00
5:31 PM,73.8,37.6,27,29.89,10.0,Calm,Calm,-,N/A,,Clear,0,2012-10-02 21:31:00
5:51 PM,71.2,36.0,27,29.89,10.0,NE,5.8,-,N/A,,Clear,50,2012-10-02 21:51:00
6:11 PM,71.1,36.3,28,29.90,10.0,ENE,5.8,-,N/A,,Clear,70,2012-10-02 22:11:00
6:31 PM,70.0,37.0,30,29.90,10.0,East,5.8,-,N/A,,Clear,100,2012-10-02 22:31:00
6:51 PM,69.3,39.0,33,29.91,10.0,East,3.5,-,N/A,,Clear,100,2012-10-02 22:51:00
7:11 PM,61.0,41.2,48,29.92,10.0,Calm,Calm,-,N/A,,Clear,0,2012-10-02 23:11:00
7:31 PM,57.4,42.6,58,29.92,10.0,Calm,Calm,-,N/A,,Clear,0,2012-10-02 23:31:00
8:11 PM,54.9,43.3,65,29.94,10.0,Calm,Calm,-,N/A,,Clear,0,2012-10-03 00:11:00
8:31 PM,51.3,41.7,70,29.95,10.0,Calm,Calm,-,N/A,,Clear,0,2012-10-03 00:31:00
8:51 PM,50.0,41.0,71,29.96,10.0,Calm,Calm,-,N/A,,Clear,0,2012-10-03 00:51:00
9:12 PM,50.0,42.3,75,29.96,10.0,Calm,Calm,-,N/A,,Clear,0,2012-10-03 01:12:00
9:32 PM,45.5,40.5,83,29.97,10.0,NNW,3.5,-,N/A,,Clear,330,2012-10-03 01:32:00
9:52 PM,44.6,41.5,89,29.98,10.0,Calm,Calm,-,N/A,,Clear,0,2012-10-03 01:52:00
10:12 PM,45.3,42.1,88,29.99,10.0,Calm,Calm,-,N/A,,Clear,0,2012-10-03 02:12:00
10:32 PM,43.9,41.2,90,29.99,10.0,Calm,Calm,-,N/A,,Clear,0,2012-10-03 02:32:00
10:52 PM,42.3,40.5,93,29.99,10.0,Calm,Calm,-,N/A,,Clear,0,2012-10-03 02:52:00
11:12 PM,41.7,39.4,91,29.99,10.0,Calm,Calm,-,N/A,,Clear,0,2012-10-03 03:12:00
11:32 PM,41.0,39.6,95,29.99,10.0,Calm,Calm,-,N/A,,Clear,0,2012-10-03 03:32:00
11:52 PM,41.0,40.3,97,29.99,10.0,Calm,Calm,-,N/A,,Clear,0,2012-10-03 03:52:00